Location: Cerbedi�res
(48.2182°N, 1.4849°W)
Time: 07:43:22
(UTC+00:00)

Cosmos 2333 Rocket - Pass Details

Date: 03 March 2021
Orbit: 837 x 864 km, 70.8° (Epoch: 13 April)

Event Time Altitude Azimuth Distance (km) Brightness Sun altitude
Rises 20:30:08 0° 212° (SSW) 3,390 5.5 -26.5°
Reaches altitude 10° 20:32:34 10° 214° (SW) 2,463 4.7 -26.8°
Maximum altitude 20:38:13 73° 299° (WNW) 891 2.3 -27.7°
Drops below altitude 10° 20:43:57 10° 25° (NNE) 2,497 4.6 -28.6°
Sets 20:46:27 0° 28° (NNE) 3,441 5.4 -29.0°
